Malmstrom AFB, MT

7:01 AM MDT on July 26, 2017 (GMT -0600)
Malmstrom AFB

Weather History for KGFA - August, 2013

Change the Weather History Date:

Tuesday, August 6, 2013

  Actual Average (KGTF) Record (KGTF)
Temperature  
Mean Temperature 66 °F -  
Max Temperature 81 °F 86 °F 104 °F (1983)
Min Temperature 51 °F 54 °F 41 °F (1924)
Cooling Degree Days 1    
Growing Degree Days 16 (Base 50)    
Moisture  
Dew Point 46 °F    
Average Humidity 52    
Maximum Humidity 89    
Minimum Humidity 21    
Precipitation  
Precipitation 0.00 in - - ()
Sea Level Pressure  
Sea Level Pressure 30.04 in    
Wind  
Wind Speed 6 mph (West)    
Max Wind Speed 13 mph    
Max Gust Speed 22 mph    
Visibility 10 miles    
Events      
Averages and records for this station are not official NWS values.
T = Trace of Precipitation, MM = Missing Value Source: NWS Daily Summary

Daily Weather History Graph

Daily Weather History Graph

Search for Another Location

Airport or City:

Trip Planner

Search our weather history database for the weather conditions in past years. The results will help you decide how hot, cold, wet, or windy it might be!

Date:

Astronomy

Aug. 06, 2013 Rise Set
Actual Time 6:09 AM MDT 8:50 PM MDT
Civil Twilight 5:34 AM MDT 9:25 PM MDT
Nautical Twilight 4:49 AM MDT 10:10 PM MDT
Astronomical Twilight 3:57 AM MDT 11:02 PM MDT
Moon 6:08 AM MDT (8/6) 8:20 PM MDT (8/6)
Length of Visible Light 15h 51m
Length of Day
14h 41m
Waning Crescent, 0% of the Moon is Illuminated
Aug 6
Waning Crescent
Aug 6
New
Aug 14
First Quarter
Aug 20
Full
Aug 28
Last Quarter

Hourly Weather History & Observations

Time (MDT) Temp. Dew Point Humidity Pressure Visibility Wind Dir Wind Speed Gust Speed Precip Events Conditions
12:56 AM 59.0 °F 52.0 °F 78% 30.02 in 10.0 mi South 5.8 mph - N/A   Overcast
1:56 AM 61.0 °F 51.1 °F 70% 30.01 in 10.0 mi West 4.6 mph - N/A   Clear
2:56 AM 54.0 °F 50.0 °F 86% 30.02 in 10.0 mi SE 3.5 mph - N/A   Clear
3:56 AM 53.1 °F 50.0 °F 89% 30.01 in 10.0 mi SSW 5.8 mph - N/A   Clear
4:56 AM 53.1 °F 48.9 °F 86% 30.04 in 10.0 mi Calm Calm - N/A   Clear
5:56 AM 51.1 °F 48.0 °F 89% 30.04 in 10.0 mi SSE 5.8 mph - N/A   Clear
7:56 AM 57.0 °F 50.0 °F 77% 30.06 in 10.0 mi SSW 8.1 mph - N/A   Clear
8:56 AM 63.0 °F 50.0 °F 63% 30.06 in 10.0 mi SW 6.9 mph - N/A   Clear
9:56 AM 66.0 °F 50.0 °F 56% 30.06 in 10.0 mi SW 6.9 mph - N/A   Clear
10:56 AM 70.0 °F 48.9 °F 47% 30.06 in 10.0 mi WSW 8.1 mph - N/A   Clear
11:56 AM 73.0 °F 44.1 °F 35% 30.06 in 10.0 mi Variable 6.9 mph - N/A   Clear
12:56 PM 75.9 °F 45.0 °F 33% 30.05 in 10.0 mi Variable 4.6 mph - N/A   Partly Cloudy
1:56 PM 77.0 °F 42.1 °F 29% 30.05 in 10.0 mi West 10.4 mph 21.9 mph N/A   Mostly Cloudy
2:56 PM 80.1 °F 37.0 °F 21% 30.05 in 10.0 mi WNW 5.8 mph 19.6 mph N/A   Partly Cloudy
3:56 PM 81.0 °F 39.0 °F 22% 30.04 in 10.0 mi North 12.7 mph 20.7 mph N/A   Partly Cloudy
4:56 PM 81.0 °F 39.9 °F 23% 30.03 in 10.0 mi Variable 4.6 mph - N/A   Partly Cloudy
5:56 PM 80.1 °F 37.9 °F 22% 30.03 in 10.0 mi NW 8.1 mph - N/A   Partly Cloudy
6:56 PM 80.1 °F 37.9 °F 22% 30.02 in 10.0 mi NNW 4.6 mph - N/A   Scattered Clouds
7:56 PM 77.0 °F 43.0 °F 30% 30.03 in 10.0 mi NNE 11.5 mph - N/A   Overcast
8:56 PM 69.1 °F 44.1 °F 40% 30.04 in 10.0 mi NE 8.1 mph - N/A   Clear
9:56 PM 64.0 °F 45.0 °F 50% 30.06 in 10.0 mi NE 8.1 mph - N/A   Clear
10:56 PM 61.0 °F 46.0 °F 58% 30.06 in 10.0 mi NE 4.6 mph - N/A   Clear
11:56 PM 60.1 °F 46.9 °F 62% 30.05 in 10.0 mi NE 3.5 mph - N/A   Clear